Wind_Speed
46 44 43 48 47 44 42 38 37 39 43 33 28 24 28 36 44 44 44 40 41 41 37 40 34 32 30 31 35 34 32 31 31 32 33 36 41 48 53 54 55 54 56 58
52 46 48 48 49 49 48 46 40 38 42 29 29 27 32 36 44 49 46 45 43 42 46 47 43 39 35 35 35 35 34 34 33 32 30 32 33 34 35 39 42 45 49 52
55 54 53 60 57 57 53 57 51 45 46 41 40 27 35 40 42 48 52 51 50 43 40 43 50 49 48 46 43 41 39 37 37 37 37 38 37 39 41 43 45 46 48 50
51 60 59 54 55 64 55 65 58 53 48 43 40 32 30 39 44 45 50 54 53 51 49 47 47 49 53 53 48 46 42 44 45 39 42 46 51 51 48 45 50 46 49 53
61 59 53 58 70 72 57 62 58 56 51 41 43 48 32 38 41 47 51 54 58 60 53 54 54 55 51 46 45 44 40 41 36 38 43 47 51 52 55 53 54 63 58 70
77 66 71 82 78 69 70 65 66 59 52 48 50 56 40 47 49 46 50 56 60 61 57 61 60 58 58 50 48 55 56 52 52 58 55 56 59 61 65 66 70 69 77 75
80 80 76 75 77 80 77 78 82 77 78 55 53 44 23 41 49 52 61 64 61 61 63 67 68 69 68 75 62 60 63 67 70 68 67 68 68 69 75 76 80 83 85 88
84 76 82 84 84 83 86 84 90 96 88 81 78 44 35 48 49 51 60 70 71 70 68 68 70 70 72 74 76 73 76 74 76 79 80 84 84 88 87 94 91 97 93 94
95 92 85 90 89 84 86 96 96 100 99 102 81 67 53 66 66 68 61 67 78 78 81 78 82 78 74 68 73 80 81 82 82 84 90 92 93 92 97 100 99 99 99 96
104 101 94 94 97 94 92 94 104 102 109 107 98 99 75 88 99 96 93 92 90 85 86 83 85 83 82 88 83 86 90 90 89 90 90 92 100 101 102 103 101 101 103 105
115 113 104 100 103 107 104 106 106 109 104 113 112 108 92 98 97 97 102 102 106 105 109 98 92 90 89 97 97 100 98 99 97 96 101 100 101 107 110 112 112 113 110 109
122 129 125 108 106 117 113 111 113 116 116 119 125 125 81 93 104 105 117 125 119 108 113 116 108 107 109 109 113 103 107 107 108 114 112 113 113 115 118 122 119 122 122 120
130 129 135 123 116 121 120 121 128 125 126 133 135 132 114 113 111 114 125 120 120 113 113 125 122 116 115 112 118 122 119 115 119 125 126 123 124 128 132 135 135 129 129 130
136 138 136 135 132 129 133 135 133 131 137 142 142 135 132 138 133 128 120 120 121 125 121 123 123 123 126 118 125 127 128 128 127 134 138 139 138 138 141 128 127 124 133 130
142 145 141 145 147 143 145 150 146 151 145 145 146 149 150 144 147 145 135 129 134 130 126 129 131 138 131 135 134 133 135 139 140 141 145 145 143 146 141 122 114 114 109 107
159 162 163 163 156 161 164 155 152 142 143 154 155 152 156 159 154 156 151 145 139 137 136 135 139 144 142 139 145 142 143 147 150 143 130 119 118 113 113 111 107 105 103 104
141 146 148 149 150 160 160 151 150 146 142 143 141 137 140 139 134 132 139 143 141 120 134 139 129 126 129 124 123 136 134 126 126 126 118 116 114 114 113 108 106 106 107 105
134 140 145 140 138 139 133 133 132 128 126 127 126 127 127 128 129 129 130 127 125 123 123 117 115 107 109 107 104 105 109 111 109 108 105 106 106 110 112 111 112 110 104 101
125 126 127 127 126 124 118 121 125 125 121 120 122 126 129 126 123 127 127 124 122 119 115 112 111 109 106 105 103 97 101 107 109 109 107 107 105 103 104 104 105 107 104 102
122 127 127 124 123 118 109 113 116 116 114 119 116 116 116 116 115 113 121 119 118 117 115 112 111 110 108 105 105 103 100 102 102 105 106 106 104 104 105 104 104 106 104 102
116 121 122 120 123 120 113 113 115 117 115 114 114 115 117 117 117 115 114 118 117 114 113 112 107 105 107 106 106 105 103 104 100 101 100 103 108 110 111 108 107 108 109 108
105 108 109 114 116 111 110 113 113 115 114 111 111 112 115 115 114 114 111 109 110 112 112 111 106 104 103 104 105 102 102 103 100 102 102 102 102 104 109 112 111 110 109 107
102 103 105 108 106 108 111 110 109 112 111 106 109 109 108 106 104 103 102 101 100 102 102 104 103 101 101 103 102 97 98 96 94 95 95 101 102 104 108 110 109 107 108 109
94 96 101 103 92 101 102 101 103 103 103 102 104 105 106 103 103 101 100 99 98 97 97 99 99 97 96 101 98 97 95 95 90 88 88 92 95 101 107 108 110 111 109 109
85 93 100 93 87 100 96 95 100 100 103 103 103 104 104 102 100 98 93 94 93 93 93 95 94 93 91 93 93 94 92 92 89 85 84 86 88 94 99 103 108 111 109 111
89 89 93 91 92 97 92 97 99 100 102 101 100 98 98 97 93 92 89 88 87 84 83 83 84 85 84 86 86 89 90 89 85 83 82 82 84 85 88 94 101 105 107 111
Wind_Direction
290 301 288 282 289 281 272 270 269 272 279 279 286 272 286 292 295 288 286 289 288 290 284 281 278 280 272 270 269 267 268 270 271 274 276 273 268 269 271 270 271 272 272 272
288 294 291 288 287 286 284 273 270 260 274 275 278 288 274 276 278 283 286 287 286 282 285 284 282 278 272 268 271 270 265 262 263 267 271 271 270 272 273 276 277 277 276 277
294 291 289 290 283 287 289 281 267 264 269 269 270 275 277 273 272 276 282 283 283 280 277 279 283 285 281 277 273 273 271 270 270 272 271 274 273 272 274 274 273 276 276 277
296 292 285 286 294 285 286 292 280 265 261 264 277 265 253 268 276 278 275 277 275 275 281 283 279 274 277 276 279 277 275 277 272 275 277 278 279 278 278 278 279 278 283 287
290 282 290 291 288 290 287 285 293 278 274 273 271 272 246 253 266 276 271 270 273 276 278 281 278 277 274 271 269 268 270 276 273 277 275 277 282 276 280 276 282 281 283 294
286 284 281 286 288 291 285 292 296 297 288 284 286 272 254 254 250 257 258 260 265 268 274 275 276 275 277 277 272 265 263 278 281 286 283 277 280 281 286 280 282 286 285 290
292 278 285 282 286 287 290 287 293 302 301 293 281 286 276 251 248 256 258 255 253 253 261 267 271 277 281 282 273 273 276 279 284 285 287 289 287 292 289 288 296 278 286 289
291 289 279 285 285 288 287 287 294 293 297 299 301 277 265 285 283 260 256 250 252 252 263 258 269 269 266 272 276 277 278 279 283 285 296 301 298 299 296 296 291 296 288 287
290 294 278 281 282 284 288 290 288 292 287 298 296 294 277 301 296 293 269 265 264 264 265 264 273 288 277 286 285 289 292 296 287 282 281 281 287 291 292 293 290 290 283 280
287 289 288 284 290 286 281 277 279 289 282 281 293 297 301 297 298 297 292 283 281 274 269 267 270 282 289 294 284 284 289 288 285 287 282 277 277 279 284 281 279 281 278 276
285 286 287 284 291 287 281 283 285 281 282 275 281 287 299 295 292 288 284 278 287 295 302 290 285 280 285 290 290 288 287 288 289 285 286 283 282 282 283 283 278 277 278 272
285 284 286 284 285 288 287 283 280 281 285 284 282 290 279 274 278 277 281 289 292 288 292 293 283 285 289 290 293 289 287 285 286 286 283 281 281 280 282 282 276 275 274 275
285 285 287 286 287 288 282 281 284 285 286 287 288 287 280 280 269 277 284 287 287 282 283 287 288 282 283 284 285 289 287 285 285 286 284 280 278 279 278 278 277 273 271 271
282 283 285 285 284 283 283 281 281 281 284 287 284 283 278 281 280 278 279 279 278 279 279 280 278 280 282 277 280 279 282 280 276 275 279 279 279 277 278 276 276 272 268 271
277 278 277 279 281 280 278 279 280 282 282 277 279 279 281 278 278 278 276 272 274 274 272 273 274 277 277 275 274 275 275 275 274 275 275 273 272 272 274 270 268 266 268 269
274 273 273 272 274 273 274 275 279 278 272 275 277 274 272 277 275 273 274 274 275 273 269 268 270 270 269 269 267 267 267 270 272 270 271 269 270 268 266 263 264 263 264 267
273 273 273 274 273 271 273 276 274 274 276 277 275 276 277 276 276 277 275 275 276 278 274 272 271 269 268 267 269 269 268 267 268 268 267 265 265 265 264 263 262 262 263 264
274 274 273 275 273 273 276 275 274 275 276 275 277 276 276 276 277 279 279 277 278 277 274 274 274 271 270 267 263 264 267 267 267 268 267 265 262 260 259 260 261 263 264 264
275 276 276 275 275 276 277 275 275 275 275 276 276 276 275 277 278 279 279 278 278 277 278 278 277 276 274 273 270 266 263 263 264 264 265 262 262 260 258 257 258 260 261 263
275 276 276 278 278 280 279 278 278 277 277 277 276 276 276 275 275 276 277 278 278 278 277 276 276 276 275 274 272 271 266 262 260 260 262 264 263 260 258 257 257 258 259 261
272 273 275 277 276 277 280 278 277 276 275 275 275 276 276 277 277 277 276 278 278 278 277 277 275 273 273 273 271 269 267 265 262 260 258 256 257 258 258 257 255 255 255 255
272 273 274 274 276 279 277 276 276 277 277 277 276 276 275 274 274 275 275 275 275 276 277 277 276 275 273 271 270 268 267 266 263 260 259 257 255 255 256 258 258 257 256 255
272 272 272 273 275 276 275 276 277 277 277 278 277 276 275 276 276 277 277 276 275 275 275 275 274 274 273 272 270 268 267 264 262 260 257 256 255 253 253 254 255 256 257 257
276 277 275 274 275 276 275 277 277 277 278 278 278 278 279 279 279 279 279 278 277 276 275 273 273 272 271 272 272 271 270 269 267 263 260 256 252 251 252 253 254 255 255 255
279 275 275 279 278 275 277 278 277 278 279 280 280 280 281 281 281 280 279 278 276 275 274 275 275 275 275 274 273 272 270 269 268 266 262 258 255 252 249 250 251 252 253 254
275 276 277 276 276 278 279 277 279 279 278 279 281 282 283 282 281 280 279 278 277 277 276 275 274 274 272 271 269 269 269 268 267 265 263 260 258 255 251 249 249 250 250 251
Height
10734 10734 10730 10719 10722 10724 10725 10727 10729 10725 10719 10728 10730 10734 10731 10723 10714 10711 10711 10714 10711 10708 10708 10707 10711 10712 10711 10709 10707 10707 10708 10709 10708 10708 10708 10709 10708 10712 10713 10716 10714 10714 10714 10715
10722 10726 10714 10712 10709 10709 10712 10715 10718 10718 10713 10718 10722 10728 10725 10718 10710 10699 10702 10702 10700 10699 10697 10694 10697 10697 10699 10700 10699 10699 10699 10699 10700 10700 10700 10700 10700 10701 10701 10701 10701 10702 10700 10700
10707 10711 10701 10697 10698 10693 10696 10696 10701 10706 10703 10705 10708 10721 10719 10708 10704 10698 10691 10692 10688 10687 10685 10685 10685 10685 10686 10687 10689 10689 10689 10689 10689 10691 10691 10690 10690 10690 10690 10688 10689 10689 10688 10687
10697 10690 10687 10685 10684 10675 10690 10674 10684 10686 10688 10695 10695 10706 10708 10703 10695 10691 10685 10679 10678 10673 10673 10671 10669 10669 10671 10674 10674 10674 10677 10679 10680 10679 10679 10680 10680 10679 10677 10679 10678 10676 10676 10675
10683 10677 10673 10672 10667 10665 10672 10666 10665 10670 10676 10682 10687 10686 10694 10691 10687 10681 10675 10671 10662 10657 10662 10656 10649 10649 10652 10660 10663 10666 10667 10666 10665 10667 10669 10669 10669 10665 10664 10665 10664 10665 10662 10660
10662 10659 10663 10658 10651 10647 10648 10647 10647 10651 10655 10668 10666 10666 10685 10677 10675 10673 10666 10658 10650 10647 10643 10635 10632 10634 10639 10644 10649 10652 10652 10650 10651 10651 10651 10652 10651 10652 10650 10649 10648 10646 10644 10642
10642 10641 10643 10635 10634 10627 10621 10622 10622 10625 10629 10646 10647 10658 10666 10663 10656 10653 10647 10641 10634 10630 10625 10623 10621 10619 10621 10624 10628 10630 10631 10632 10632 10631 10632 10632 10632 10632 10628 10627 10627 10626 10624 10620
10619 10627 10619 10617 10610 10606 10602 10595 10591 10585 10602 10613 10620 10645 10648 10644 10639 10630 10626 10620 10614 10610 10609 10609 10608 10608 10610 10608 10605 10605 10606 10610 10610 10611 10608 10607 10607 10608 10605 10604 10603 10600 10598 10596
10584 10604 10602 10595 10591 10585 10583 10572 10563 10555 10563 10566 10599 10618 10623 10622 10615 10613 10605 10597 10586 10585 10588 10593 10582 10586 10594 10593 10593 10589 10585 10585 10584 10585 10582 10582 10584 10584 10581 10580 10577 10576 10571 10569
10555 10562 10574 10571 10569 10566 10554 10554 10547 10540 10521 10526 10556 10568 10604 10597 10585 10579 10572 10557 10553 10556 10561 10563 10571 10571 10571 10566 10564 10562 10561 10560 10560 10559 10558 10557 10555 10552 10550 10551 10551 10550 10548 10545
10530 10522 10550 10548 10555 10541 10529 10522 10520 10508 10504 10496 10501 10533 10581 10560 10553 10543 10529 10522 10527 10535 10541 10543 10540 10544 10543 10532 10532 10528 10529 10529 10528 10529 10526 10525 10526 10524 10522 10518 10514 10508 10508 10512
10503 10488 10492 10521 10520 10512 10502 10495 10486 10472 10482 10469 10453 10469 10556 10536 10519 10496 10494 10507 10509 10509 10508 10507 10508 10506 10506 10502 10499 10502 10493 10493 10495 10494 10493 10491 10490 10490 10488 10485 10481 10478 10478 10475
10472 10461 10451 10467 10485 10483 10460 10462 10453 10449 10441 10440 10435 10431 10466 10490 10479 10473 10474 10476 10476 10477 10477 10470 10471 10472 10471 10468 10461 10460 10464 10462 10461 10456 10457 10457 10457 10455 10452 10449 10449 10447 10445 10442
10431 10430 10425 10418 10435 10453 10434 10425 10426 10424 10415 10414 10402 10395 10411 10411 10433 10439 10443 10444 10442 10439 10436 10436 10433 10435 10435 10435 10432 10428 10422 10424 10432 10428 10425 10421 10420 10416 10416 10407 10406 10406 10407 10409
10401 10399 10399 10403 10399 10399 10397 10395 10408 10408 10392 10370 10378 10364 10364 10376 10377 10382 10400 10408 10405 10405 10400 10397 10396 10397 10399 10402 10400 10393 10387 10379 10381 10390 10386 10384 10385 10380 10381 10376 10374 10376 10376 10373
10376 10371 10365 10372 10383 10353 10348 10372 10378 10357 10360 10342 10338 10340 10336 10334 10331 10328 10333 10342 10356 10362 10367 10365 10359 10353 10355 10362 10366 10361 10354 10343 10333 10352 10346 10341 10339 10338 10342 10342 10341 10343 10346 10342
10328 10325 10317 10321 10336 10307 10313 10349 10325 10316 10311 10297 10293 10285 10281 10284 10287 10282 10282 10286 10292 10295 10306 10311 10312 10318 10318 10311 10307 10310 10313 10307 10297 10301 10308 10308 10308 10304 10302 10307 10310 10313 10313 10311
10286 10282 10270 10277 10281 10268 10295 10291 10287 10279 10269 10266 10254 10246 10243 10244 10246 10239 10239 10239 10245 10248 10255 10257 10259 10263 10265 10267 10272 10275 10267 10263 10259 10257 10262 10265 10268 10269 10272 10274 10276 10278 10279 10280
10244 10239 10233 10228 10233 10240 10256 10252 10243 10236 10236 10233 10223 10216 10209 10208 10216 10208 10196 10201 10205 10207 10208 10208 10210 10211 10216 10215 10222 10232 10230 10228 10223 10220 10221 10224 10229 10232 10233 10237 10239 10242 10246 10247
10214 10203 10195 10197 10195 10194 10216 10211 10205 10197 10196 10188 10184 10180 10177 10174 10176 10190 10163 10164 10164 10163 10166 10167 10169 10170 10170 10172 10173 10178 10182 10183 10184 10183 10184 10182 10184 10191 10196 10201 10206 10208 10213 10217
10186 10174 10168 10168 10156 10161 10174 10171 10162 10156 10157 10155 10153 10149 10145 10142 10138 10141 10143 10128 10124 10127 10126 10124 10131 10133 10129 10127 10129 10134 10136 10135 10143 10146 10150 10150 10146 10148 10151 10158 10165 10171 10177 10184
10158 10149 10145 10129 10126 10137 10135 10124 10124 10117 10114 10119 10119 10118 10108 10105 10104 10100 10106 10108 10099 10090 10086 10083 10089 10089 10090 10088 10086 10092 10092 10093 10100 10105 10109 10115 10118 10119 10116 10118 10125 10134 10141 10149
10118 10117 10111 10105 10111 10100 10091 10092 10093 10079 10078 10088 10076 10073 10068 10071 10072 10071 10069 10069 10065 10059 10056 10049 10049 10052 10051 10044 10042 10054 10051 10055 10065 10070 10074 10078 10085 10087 10087 10088 10092 10098 10105 10110
10089 10084 10071 10064 10093 10067 10062 10062 10053 10049 10046 10046 10040 10035 10033 10036 10036 10036 10035 10033 10028 10027 10020 10014 10012 10015 10021 10006 10010 10011 10016 10017 10027 10035 10039 10043 10049 10051 10055 10058 10060 10065 10071 10076
10066 10047 10030 10044 10057 10024 10035 10035 10023 10021 10014 10012 10010 10004 10003 10001 10001 9998 10003 9997 9993 9991 9990 9982 9983 9984 9987 9979 9979 9976 9979 9982 9989 9996 10003 10008 10012 10018 10021 10025 10029 10032 10039 10042
10022 10020 10009 10016 10014 10001 10013 10001 9995 9990 9986 9985 9982 9977 9968 9964 9967 9964 9968 9963 9960 9961 9959 9957 9952 9951 9951 9947 9946 9942 9942 9944 9951 9959 9963 9968 9972 9979 9986 9991 9996 10000 10006 10009